Terminal Aerodrome Forecast
Issued by NWS Blacksburg, VA

Current Version | Previous Version | Graphics & Text | Print | Product List | Glossary On
Versions: 1 2 3 4 5 6 7 8 9 10 11 12 13 14 15 16 17 18 19 20 21 22 23 24 25 26 27 28 29 30 31 32 33 34 35 36 37 38
000
FTUS41 KRNK 202324
TAFBLF
TAF
KBLF 202324Z 2100/2124 32004KT P6SM BKN250
     FM210300 09004KT P6SM OVC050
     FM210500 11005KT 4SM -RA OVC025
     FM211300 25004KT P6SM SCT007 OVC015
     FM212000 30010KT P6SM OVC018=

USA.gov is the U.S. government's official web portal to all federal, state and local government web resources and services.